Watts Bar Observed Data For Previous 48 Hours

Caption
Day and Hour Reservoir Elevation (behind dam)* Tailwater Elevation (below dam)* Average Hourly Discharge*
1/15/2019 2 AM EST 737.33 684.12 73,035
1/15/2019 3 AM EST 737.33 684.08 73,019
1/15/2019 4 AM EST 737.33 684.06 73,007
1/15/2019 5 AM EST 737.32 684.05 72,996
1/15/2019 6 AM EST 737.32 684.09 73,001
1/15/2019 7 AM EST 737.32 684.06 72,989
1/15/2019 8 AM EST 737.32 684.10 72,974
1/15/2019 9 AM EST 737.31 684.07 72,980
1/15/2019 10 AM EST 737.31 684.09 72,962
1/15/2019 11 AM EST 737.31 684.08 72,988
1/15/2019 12 PM EST 737.30 684.04 73,001
1/15/2019 1 PM EST 737.30 684.03 72,970
1/15/2019 2 PM EST 737.30 684.04 72,960
1/15/2019 3 PM EST 737.30 684.02 72,973
1/15/2019 4 PM EST 737.29 684.06 72,960
1/15/2019 5 PM EST 737.29 684.04 72,986
1/15/2019 6 PM EST 737.29 684.07 72,982
1/15/2019 7 PM EST 737.29 684.02 72,958
1/15/2019 8 PM EST 737.28 684.01 72,972
1/15/2019 9 PM EST 737.28 684.02 72,939
1/15/2019 10 PM EST 737.26 684.01 72,920
1/15/2019 11 PM EST 737.26 683.99 72,962
1/16/2019 12 AM EST 737.27 684.00 72,971
1/16/2019 1 AM EST 737.26 684.02 73,026
1/16/2019 2 AM EST 737.25 683.99 72,997
1/16/2019 3 AM EST 737.26 683.99 72,965
1/16/2019 4 AM EST 737.25 683.99 72,945
1/16/2019 5 AM EST 737.25 683.99 72,969
1/16/2019 6 AM EST 737.25 684.00 72,970
1/16/2019 7 AM EST 737.25 684.00 72,977
1/16/2019 8 AM EST 737.25 684.02 72,986
1/16/2019 9 AM EST 737.24 684.03 72,966
1/16/2019 10 AM EST 737.25 683.97 72,954
1/16/2019 11 AM EST 737.24 683.99 72,973
1/16/2019 12 PM EST 737.24 683.95 72,954
1/16/2019 1 PM EST 737.24 683.99 72,966
1/16/2019 2 PM EST 737.23 683.97 72,984
1/16/2019 3 PM EST 737.22 683.98 72,967
1/16/2019 4 PM EST 737.23 683.96 72,966
1/16/2019 5 PM EST 737.23 683.98 72,971
1/16/2019 6 PM EST 737.23 683.96 72,963
1/16/2019 7 PM EST 737.22 683.95 72,912
1/16/2019 8 PM EST 737.21 683.97 72,913
1/16/2019 9 PM EST 737.22 683.91 72,878
1/16/2019 10 PM EST 737.22 683.98 72,882
1/16/2019 11 PM EST 737.21 683.92 72,888
1/17/2019 12 AM EST 737.22 683.92 72,879
1/17/2019 1 AM EST 737.21 683.94 72,884
1/17/2019 2 AM EST 737.21 683.94 72,858
1/17/2019 3 AM EST 737.20 683.94 72,898
1/17/2019 4 AM EST 737.20 683.92 72,910
1/17/2019 5 AM EST 737.20 683.92 72,922
1/17/2019 6 AM EST 737.20 683.95 72,849
1/17/2019 7 AM EST 737.19 683.90 72,869
1/17/2019 8 AM EST 737.20 683.89 72,877
1/17/2019 9 AM EST 737.20 683.90 72,844
1/17/2019 10 AM EST 737.19 683.90 72,840
1/17/2019 11 AM EST 737.19 683.90 72,847
1/17/2019 12 PM EST 737.19 683.91 72,845
1/17/2019 1 PM EST 737.18 683.91 72,901
1/17/2019 2 PM EST 737.16 683.92 72,891
1/17/2019 3 PM EST 737.09 683.91 72,838
1/17/2019 4 PM EST 737.05 683.91 72,833
1/17/2019 5 PM EST 737.07 683.92 72,831
1/17/2019 6 PM EST 737.04 683.91 72,726
1/17/2019 7 PM EST 737.02 683.89 72,690
1/17/2019 8 PM EST 736.99 683.90 72,666
1/17/2019 9 PM EST 736.97 683.90 72,657
1/17/2019 10 PM EST 736.94 683.90 72,658
1/17/2019 11 PM EST 736.94 683.95 72,649

Elevations are in feet above sea level. Discharges are in cubic feet per second and are reported at the end of the hour.